Vertical_Velocity
1 1 1 1 1 1 1 1 1 2 2 3 2 1 1 1 1 -0 -0 0 1 0 -1 -1 -1 -1 -2 -3 -1 -2 -3 -3 -3 -3 -3 -3 -3 -3 -3 -3 -3 -2 -1 -2 -2 -1 -0 -1 -0 -1 -2 -2 -0 -1 -3 -2 1 -0 -3 -3 -0 -0 -1 -2 -1 -1 -1 -2 -3
0 0 0 1 1 1 1 0 0 1 1 1 2 2 1 1 1 -0 -1 -1 -0 0 -0 -2 -2 -2 -2 -4 -4 -3 -3 -4 -4 -4 -4 -4 -4 -4 -3 -2 -2 -1 -0 0 -1 -1 -0 0 -0 -1 -1 -2 -0 -1 -2 -4 -0 0 -1 -4 -4 -2 -1 -2 -2 -2 -1 -2 -1
-0 -0 -0 -0 -0 -0 -0 -0 -0 -0 -0 -0 0 1 1 0 0 0 -0 -1 -1 -1 -1 -1 -3 -3 -3 -4 -5 -5 -4 -3 -4 -4 -4 -4 -4 -3 -3 -1 -1 -1 -1 0 -0 -0 -0 0 -0 -0 -1 -2 -1 -1 -1 -3 -3 -2 -2 -3 -4 -4 -4 -3 -2 -1 -2 -3 -1
0 0 -0 -0 -0 -0 -0 -0 -1 -1 -1 -0 -0 -1 -0 -0 -0 -0 -1 -1 -2 -2 -2 -2 -3 -4 -4 -3 -5 -5 -5 -4 -3 -3 -3 -3 -2 -2 -2 -1 -1 -1 -2 -1 -0 -1 -1 -1 -1 -1 -1 -1 -3 -3 -2 -2 -4 -5 -4 -3 -3 -4 -4 -4 -2 -1 -1 -4 -1
0 0 1 0 -0 -0 -1 -0 -0 -1 -1 -1 -1 -2 -2 -2 -1 -2 -2 -2 -2 -3 -3 -2 -3 -4 -4 -4 -4 -4 -5 -5 -3 -2 -2 -2 -2 -1 -2 -3 -1 -1 -1 -2 -1 -1 -1 -1 -3 -3 -2 -0 -3 -5 -5 -2 -4 -5 -6 -4 -4 -4 -4 -6 -3 -1 -2 -5 -2
-0 -0 -0 -0 -0 -1 -1 -1 -0 -0 -1 -1 -1 -2 -3 -3 -3 -2 -2 -2 -3 -3 -3 -2 -3 -3 -4 -4 -4 -4 -4 -4 -3 -1 -1 -2 -2 -1 -1 -4 -3 -2 -1 -2 -3 -3 -2 -1 -4 -6 -7 -4 -4 -6 -7 -4 -5 -5 -5 -5 -4 -3 -2 -6 -3 -1 -2 -5 -2
-0 -0 -1 -1 -1 -1 -2 -2 -1 -1 -1 -1 -1 -1 -2 -3 -3 -2 -2 -2 -2 -2 -3 -3 -2 -3 -3 -3 -3 -3 -3 -3 -3 -2 -1 -1 -3 -2 -1 -2 -4 -4 -3 -2 -3 -5 -6 -4 -4 -6 -7 -7 -7 -6 -6 -4 -6 -5 -4 -5 -5 -2 -0 -5 -4 -1 -1 -3 -2
-0 -0 -0 -0 -1 -1 -2 -2 -2 -2 -2 -2 -1 -1 -2 -2 -2 -2 -3 -3 -2 -2 -2 -2 -2 -1 -1 -1 -1 -1 -1 -1 -3 -3 -2 -1 -2 -3 -3 -1 -2 -4 -5 -3 -4 -6 -7 -7 -6 -6 -6 -5 -6 -6 -5 -1 -5 -5 -4 -2 -5 -3 -1 -1 -3 -2 -1 -1 -2
-1 -1 -1 -1 -1 -1 -1 -1 -1 -1 -1 -2 -2 -1 -1 -1 -1 -1 -2 -2 -2 -2 -1 -1 -1 -1 -0 -1 -1 -1 -1 -1 -1 -2 -2 -1 -1 -2 -3 -4 -3 -5 -6 -6 -5 -6 -6 -7 -6 -6 -6 -4 -5 -6 -5 0 -2 -4 -4 -1 -3 -4 -3 0 -1 -2 -2 -0 -2
-2 -2 -2 -2 -2 -2 -1 -1 -1 -1 -0 -1 -2 -2 -1 -1 -1 -1 -1 -1 -1 -2 -2 -1 -1 -1 -1 -1 -1 -1 -1 -0 -0 -1 -1 -2 -1 -2 -3 -5 -5 -6 -7 -8 -6 -6 -6 -6 -5 -6 -6 -3 -3 -4 -4 -0 -0 -3 -4 -1 -1 -3 -3 -0 -1 -1 -2 -1 -1
-1 -1 -1 -1 -2 -2 -2 -1 -2 -2 -1 -1 -2 -2 -2 -2 -2 -3 -3 -2 -1 -2 -3 -2 -1 -1 -1 -0 -0 -1 -1 -0 -0 -1 -2 -3 -3 -4 -4 -5 -6 -6 -6 -7 -6 -6 -6 -6 -4 -5 -5 -3 -1 -2 -4 -2 -0 -1 -2 -2 -1 -2 -2 -1 -0 -1 -1 -1 -1
-1 -1 -1 -1 -1 -1 -1 -2 -2 -2 -2 -2 -3 -3 -3 -3 -3 -3 -3 -3 -2 -2 -3 -2 -1 -1 -1 -1 0 0 -1 -2 -1 -1 -2 -4 -5 -6 -6 -6 -5 -6 -7 -7 -5 -5 -5 -5 -3 -3 -4 -4 -0 -0 -1 -2 -1 -0 -1 -1 -1 -1 -2 -1 -1 -0 -0 -0 -0
-0 -1 -1 -1 -1 -1 -1 -2 -2 -2 -2 -3 -3 -3 -3 -4 -3 -2 -2 -2 -2 -3 -3 -3 -1 -0 -1 -2 -1 -0 -0 -2 -4 -4 -4 -4 -5 -6 -6 -6 -5 -5 -6 -7 -6 -5 -4 -5 -3 -2 -2 -4 -1 -0 0 -1 -1 -1 -1 -1 -1 -1 -1 -1 -0 -0 -0 0 -0
-0 -0 -1 -1 -2 -2 -2 -2 -3 -3 -2 -3 -4 -3 -3 -3 -3 -3 -2 -1 -2 -2 -2 -3 -3 -1 -1 -1 -3 -3 -2 -1 -3 -5 -6 -5 -4 -4 -4 -5 -5 -4 -4 -5 -5 -4 -4 -5 -4 -2 -1 -1 -1 -1 -0 -0 -0 -1 -1 -1 -1 -1 -0 -0 -0 -0 -0 0 0
-0 -1 -1 -1 -2 -2 -2 -2 -3 -2 -2 -3 -3 -3 -2 -3 -3 -2 -1 -2 -2 -1 -1 -3 -4 -4 -3 -1 -2 -4 -6 -4 -3 -4 -6 -6 -4 -3 -3 -4 -4 -4 -4 -4 -4 -4 -3 -3 -4 -3 -1 -0 -0 -0 -0 -0 -0 -0 -1 -1 -1 -1 -1 -0 -0 -0 0 -0 -0
-1 -1 -1 -1 -2 -2 -3 -3 -3 -2 -2 -3 -3 -2 -2 -2 -2 -2 -1 -2 -3 -3 -2 -2 -3 -5 -6 -5 -2 -3 -6 -8 -4 -3 -4 -6 -5 -4 -4 -4 -4 -4 -3 -3 -3 -3 -3 -2 -2 -3 -2 -2 -1 -0 -0 -0 -1 -1 -1 -1 -1 -1 -1 -1 -1 -0 -0 -0 -0
-1 -1 -2 -1 -2 -2 -3 -3 -3 -2 -2 -2 -2 -2 -2 -2 -2 -2 -2 -1 -3 -4 -4 -3 -3 -4 -6 -8 -6 -4 -3 -6 -7 -5 -3 -5 -6 -5 -4 -4 -4 -3 -3 -3 -2 -3 -3 -2 -2 -2 -2 -2 -1 -1 -1 -1 -1 -1 -1 -1 -1 -1 -1 -1 -1 -1 -1 -1 -0
-1 -2 -2 -2 -2 -2 -2 -3 -3 -2 -2 -2 -2 -2 -2 -2 -2 -3 -3 -3 -2 -3 -4 -6 -5 -4 -4 -5 -7 -6 -4 -3 -6 -7 -6 -4 -6 -5 -4 -3 -4 -3 -3 -3 -2 -2 -2 -2 -2 -2 -2 -1 -1 -1 -1 -1 -1 -1 -1 -1 -1 -1 -1 -1 -1 -1 -1 -1 -1
-1 -2 -2 -2 -2 -2 -2 -2 -2 -3 -2 -2 -2 -2 -2 -2 -2 -3 -4 -5 -4 -3 -3 -5 -6 -6 -5 -4 -5 -6 -6 -4 -6 -7 -7 -5 -5 -6 -5 -4 -4 -3 -3 -4 -3 -3 -2 -2 -2 -2 -2 -2 -2 -1 -1 -1 -1 -1 -1 -1 -1 -1 -2 -2 -2 -1 -1 -1 -1
-0 -1 -2 -2 -2 -2 -2 -3 -3 -3 -3 -3 -3 -3 -3 -3 -3 -3 -4 -5 -5 -5 -5 -5 -5 -6 -6 -6 -6 -7 -7 -6 -6 -7 -8 -6 -4 -4 -5 -5 -4 -4 -3 -3 -4 -3 -3 -3 -2 -2 -2 -2 -2 -2 -2 -1 -1 -1 -1 -1 -1 -2 -2 -2 -2 -2 -2 -2 -2
-0 -0 -1 -2 -2 -2 -2 -3 -3 -3 -3 -3 -3 -3 -4 -4 -4 -4 -4 -5 -5 -6 -6 -6 -6 -6 -6 -6 -7 -8 -8 -7 -5 -5 -6 -6 -5 -4 -3 -4 -5 -4 -3 -3 -3 -3 -3 -3 -3 -3 -2 -2 -2 -2 -2 -2 -1 -1 -1 -1 -1 -2 -2 -2 -2 -2 -2 -2 -2
-1 -1 -1 -1 -2 -2 -2 -3 -3 -3 -4 -4 -4 -3 -4 -4 -4 -5 -5 -6 -6 -6 -6 -6 -6 -7 -8 -7 -6 -7 -7 -7 -4 -3 -4 -5 -6 -5 -3 -2 -4 -4 -4 -3 -3 -3 -3 -2 -2 -2 -2 -2 -2 -2 -3 -2 -2 -2 -1 -1 -1 -2 -2 -3 -3 -3 -2 -2 -2
-1 -1 -1 -1 -2 -2 -2 -3 -3 -3 -4 -4 -4 -4 -4 -5 -5 -6 -6 -6 -7 -7 -8 -8 -7 -8 -8 -9 -7 -6 -5 -6 -6 -4 -2 -2 -4 -5 -5 -3 -3 -4 -4 -3 -3 -3 -3 -3 -2 -2 -1 -2 -2 -2 -3 -3 -2 -2 -2 -1 -1 -1 -1 -2 -3 -3 -3 -3 -2
-0 -1 -1 -1 -2 -2 -2 -2 -3 -4 -4 -4 -4 -5 -5 -6 -6 -6 -7 -7 -7 -8 -8 -9 -9 -8 -8 -8 -7 -6 -4 -4 -5 -5 -4 -2 -2 -3 -4 -4 -3 -3 -3 -3 -3 -3 -3 -3 -3 -2 -1 -1 -1 -2 -2 -2 -2 -2 -2 -2 -1 -1 -1 -1 -1 -2 -2 -3 -2
-0 -1 -1 -1 -1 -2 -2 -2 -3 -3 -4 -5 -5 -5 -5 -6 -6 -6 -7 -8 -8 -8 -8 -9 -9 -8 -7 -5 -6 -6 -5 -3 -3 -4 -4 -3 -2 -2 -2 -3 -3 -3 -2 -2 -2 -2 -2 -3 -3 -3 -3 -2 -1 -2 -2 -2 -2 -2 -2 -1 -1 -1 -1 -1 -1 -1 -1 -2 -2
-0 -1 -1 -1 -1 -1 -2 -2 -2 -3 -4 -5 -5 -6 -6 -6 -7 -7 -7 -8 -8 -9 -9 -8 -8 -7 -6 -5 -5 -5 -5 -4 -2 -2 -3 -3 -3 -2 -2 -2 -2 -2 -2 -1 -1 -1 -2 -2 -3 -3 -3 -3 -2 -2 -2 -2 -2 -2 -1 -1 -1 -1 -1 -1 -1 -1 -0 -0 -0
-0 -1 -1 -2 -1 -1 -2 -2 -3 -3 -4 -5 -6 -6 -7 -7 -8 -8 -8 -8 -8 -8 -8 -6 -5 -5 -5 -6 -5 -5 -5 -5 -3 -2 -1 -2 -2 -3 -2 -2 -1 -2 -1 -1 -1 -1 -1 -1 -2 -2 -3 -3 -2 -2 -2 -2 -2 -2 -2 -2 -2 -2 -2 -1 -1 -1 -0 0 0
-1 -2 -2 -2 -2 -3 -3 -3 -4 -5 -6 -6 -7 -7 -7 -7 -8 -8 -8 -8 -8 -7 -6 -6 -4 -3 -3 -4 -5 -4 -3 -4 -3 -3 -2 -1 -1 -2 -2 -2 -2 -1 -1 -1 -1 -1 -1 -1 -1 -1 -2 -2 -2 -2 -2 -2 -2 -2 -2 -2 -3 -3 -3 -3 -2 -1 -1 -0 0
-2 -2 -2 -2 -3 -4 -5 -5 -5 -6 -6 -6 -7 -8 -8 -8 -8 -8 -7 -7 -7 -6 -5 -6 -6 -5 -3 -3 -4 -4 -3 -2 -2 -3 -2 -2 -1 -1 -2 -2 -2 -2 -1 -1 -1 -1 -1 -1 -1 -1 -1 -1 -2 -2 -2 -1 -2 -2 -2 -3 -3 -4 -4 -4 -4 -3 -2 -1 -0
-1 -1 -2 -3 -4 -5 -6 -6 -6 -6 -7 -8 -8 -8 -8 -8 -9 -9 -7 -5 -5 -4 -3 -2 -4 -6 -5 -4 -4 -4 -4 -2 -2 -2 -2 -2 -1 -1 -1 -2 -2 -2 -1 -1 -0 -0 -0 -1 -1 -1 -1 -1 -1 -1 -1 -1 -1 -2 -3 -3 -4 -4 -4 -4 -4 -3 -3 -2 -1
-1 -1 -2 -4 -4 -5 -6 -7 -7 -7 -7 -8 -8 -8 -8 -8 -8 -7 -7 -5 -4 -3 -3 -1 -1 -2 -3 -3 -3 -3 -4 -4 -3 -2 -1 -2 -1 -1 -1 -1 -2 -2 -1 -1 -0 -0 -0 -0 -0 -1 -1 -1 -1 -1 -1 -1 -1 -2 -2 -3 -4 -4 -4 -4 -4 -3 -2 -2 -1
-1 -2 -3 -4 -5 -6 -6 -7 -8 -8 -8 -8 -8 -8 -8 -8 -5 -4 -3 -4 -4 -5 -6 -5 -4 -3 -3 -2 -2 -1 -1 -3 -3 -2 -1 -1 -1 -1 -1 -1 -2 -2 -2 -1 -1 -0 0 0 -0 -0 -0 -1 -1 -1 -1 -1 -1 -1 -2 -2 -3 -4 -4 -4 -3 -3 -2 -2 -1
-2 -3 -4 -5 -6 -7 -7 -7 -7 -8 -8 -8 -7 -6 -6 -7 -6 -5 -3 -2 -3 -4 -5 -5 -5 -5 -4 -3 -3 -2 -1 -0 -2 -2 -2 -1 -1 -1 -1 -1 -1 -2 -2 -1 -1 -1 -0 0 1 0 0 0 0 -0 -0 -0 -0 -1 -1 -1 -2 -3 -3 -4 -3 -3 -2 -2 -1
-3 -4 -5 -6 -7 -7 -7 -7 -7 -7 -7 -7 -7 -6 -4 -4 -5 -6 -6 -5 -3 -3 -3 -4 -2 -2 -3 -3 -2 -3 -3 -2 -1 -2 -2 -1 -1 -1 -1 -1 -1 -1 -1 -1 -1 -1 -1 -0 0 1 1 1 1 1 1 1 0 0 -0 -1 -1 -2 -3 -3 -3 -2 -2 -2 -2
-4 -5 -6 -7 -7 -7 -7 -7 -6 -6 -6 -5 -6 -5 -4 -2 -2 -3 -4 -6 -4 -4 -4 -5 -3 -2 -2 -3 -2 -2 -3 -3 -2 -1 -1 -1 -1 -1 -1 -1 -1 -1 -1 -1 -1 -2 -2 -1 -1 0 1 2 2 2 2 2 2 1 1 0 -0 -1 -2 -2 -2 -2 -2 -2 -2
-5 -6 -7 -8 -7 -7 -6 -6 -6 -5 -5 -4 -3 -4 -4 -4 -3 -3 -2 -3 -4 -3 -3 -3 -4 -4 -3 -3 -2 -2 -1 -2 -2 -1 -1 -1 -1 -1 -1 -1 -1 -1 -1 -1 -1 -2 -2 -2 -2 -1 0 2 2 2 2 2 2 2 1 1 -0 -1 -2 -2 -2 -2 -2 -2 -2
-6 -6 -7 -7 -6 -6 -5 -5 -4 -4 -4 -3 -2 -2 -3 -4 -4 -5 -4 -3 -4 -4 -3 -1 -2 -3 -3 -3 -2 -2 -1 -1 -2 -1 -1 -1 -1 -1 -1 -1 -1 -1 -1 -1 -1 -2 -2 -2 -2 -2 -1 -0 1 1 1 1 2 2 1 1 0 -1 -1 -2 -2 -2 -2 -3 -3
-7 -6 -6 -6 -6 -5 -4 -3 -3 -3 -3 -3 -1 -1 -1 -2 -3 -4 -4 -4 -4 -4 -4 -2 -1 -1 -2 -2 -2 -2 -1 -1 -1 -1 -1 -1 -1 -0 -1 -1 -1 -1 -1 -1 -1 -2 -2 -2 -2 -2 -2 -1 -0 0 0 1 1 1 1 1 0 -1 -1 -2 -3 -3 -3 -3 -3
-6 -5 -5 -4 -5 -4 -3 -1 -1 -2 -3 -3 -3 -2 -2 -2 -3 -4 -4 -2 -2 -2 -3 -3 -2 -2 -2 -2 -2 -2 -2 -1 -1 -1 -1 -1 -1 -0 -0 -0 -1 -1 -1 -1 -2 -2 -2 -2 -2 -2 -2 -1 -1 -0 0 1 1 1 1 0 -0 -0 -1 -2 -3 -3 -3 -4 -4
-5 -5 -4 -3 -2 -3 -3 -2 -1 -0 -1 -2 -3 -3 -3 -2 -3 -3 -4 -3 -2 -2 -2 -2 -1 -1 -2 -2 -2 -2 -2 -2 -2 -1 -1 -1 -1 -1 -0 -0 -1 -1 -2 -2 -2 -2 -2 -2 -2 -2 -2 -1 -1 -0 -0 1 1 1 1 0 -0 -0 -1 -1 -2 -3 -3 -3 -3
-4 -4 -4 -3 -1 -0 -1 -3 -2 -1 -0 -1 -1 -2 -2 -2 -2 -2 -3 -4 -3 -2 -2 -3 -2 -2 -1 -2 -2 -2 -2 -2 -2 -2 -2 -1 -1 -1 -0 -0 -1 -1 -2 -2 -2 -2 -2 -2 -2 -2 -1 -1 -1 -1 -0 0 1 1 1 1 0 -0 -0 -1 -1 -2 -2 -3 -3
Height
5721 5719 5717 5715 5713 5712 5710 5708 5706 5704 5702 5700 5698 5696 5694 5691 5689 5686 5684 5682 5679 5676 5673 5671 5668 5665 5662 5659 5656 5653 5650 5646 5643 5640 5637 5633 5630 5626 5622 5619 5615 5612 5608 5604 5600 5596 5592 5588 5584 5580 5576 5572 5569 5565 5561 5556 5553 5549 5545 5540 5536 5532 5528 5523 5518 5514 5509 5506 5501
5717 5716 5714 5712 5710 5708 5707 5705 5703 5701 5699 5697 5694 5692 5690 5687 5685 5682 5680 5677 5674 5671 5669 5666 5662 5660 5656 5653 5650 5647 5644 5640 5637 5633 5630 5626 5623 5619 5616 5612 5608 5604 5601 5597 5593 5589 5585 5581 5576 5572 5568 5564 5560 5556 5552 5547 5543 5539 5535 5530 5525 5521 5517 5513 5509 5504 5500 5496 5492
5714 5712 5711 5709 5707 5705 5703 5701 5699 5697 5695 5693 5691 5688 5686 5683 5680 5677 5675 5672 5669 5666 5664 5661 5657 5654 5651 5647 5644 5641 5638 5634 5631 5627 5623 5619 5616 5612 5608 5605 5601 5597 5593 5589 5585 5581 5577 5572 5568 5564 5560 5556 5551 5547 5542 5538 5533 5529 5525 5520 5515 5511 5507 5503 5499 5495 5491 5488 5484
5711 5709 5708 5706 5704 5702 5700 5698 5696 5694 5691 5689 5686 5684 5681 5679 5676 5673 5670 5667 5665 5661 5658 5655 5652 5648 5645 5642 5638 5634 5631 5627 5624 5620 5616 5612 5608 5605 5601 5597 5593 5589 5586 5581 5577 5573 5569 5565 5560 5556 5551 5547 5542 5538 5533 5528 5523 5519 5514 5510 5505 5501 5497 5494 5490 5486 5483 5480 5476
5708 5706 5704 5702 5700 5698 5696 5694 5692 5690 5687 5685 5682 5680 5677 5674 5671 5669 5666 5663 5660 5656 5653 5650 5646 5643 5639 5636 5632 5628 5624 5621 5617 5613 5609 5605 5601 5597 5594 5590 5586 5582 5578 5574 5570 5565 5561 5556 5552 5547 5542 5538 5533 5529 5523 5519 5514 5509 5504 5500 5496 5492 5489 5485 5481 5478 5475 5473 5470
5705 5703 5701 5699 5697 5695 5692 5691 5688 5686 5683 5681 5678 5675 5673 5670 5667 5664 5661 5658 5655 5651 5648 5645 5641 5637 5633 5630 5626 5622 5618 5614 5610 5606 5602 5598 5594 5590 5586 5582 5578 5574 5570 5566 5562 5557 5552 5548 5544 5539 5533 5528 5524 5519 5514 5509 5505 5500 5496 5491 5487 5484 5481 5478 5474 5471 5469 5466 5464
5701 5699 5697 5695 5693 5691 5688 5686 5684 5681 5679 5676 5674 5671 5668 5665 5662 5659 5656 5653 5650 5646 5642 5639 5635 5631 5627 5623 5619 5616 5611 5607 5603 5599 5596 5592 5587 5583 5579 5575 5571 5567 5562 5558 5554 5549 5544 5539 5535 5530 5525 5520 5515 5510 5505 5501 5496 5492 5488 5484 5480 5476 5474 5471 5468 5466 5463 5461 5459
5698 5696 5693 5691 5689 5687 5684 5682 5680 5677 5674 5672 5669 5666 5663 5660 5657 5654 5651 5648 5644 5641 5637 5633 5629 5625 5621 5617 5613 5609 5605 5601 5597 5593 5589 5585 5581 5576 5572 5567 5563 5559 5555 5550 5546 5541 5536 5531 5526 5521 5517 5511 5507 5502 5497 5492 5489 5485 5481 5477 5474 5471 5468 5465 5463 5461 5458 5456 5454
5694 5692 5689 5687 5685 5682 5680 5677 5675 5672 5670 5667 5664 5661 5658 5655 5652 5649 5646 5642 5638 5635 5631 5627 5623 5619 5615 5611 5607 5603 5599 5595 5591 5587 5582 5578 5574 5570 5565 5560 5556 5551 5547 5542 5538 5534 5528 5523 5518 5513 5508 5503 5499 5494 5490 5485 5481 5478 5475 5471 5468 5465 5462 5460 5458 5456 5454 5452 5450
5690 5688 5685 5683 5680 5678 5676 5673 5670 5668 5665 5662 5659 5656 5653 5650 5647 5643 5640 5636 5633 5629 5625 5621 5618 5614 5610 5606 5602 5598 5593 5589 5585 5581 5576 5572 5567 5563 5558 5554 5549 5544 5540 5535 5530 5526 5521 5515 5510 5505 5500 5496 5491 5487 5483 5479 5476 5472 5469 5466 5463 5461 5458 5456 5454 5452 5450 5448 5446
5686 5684 5681 5679 5676 5673 5671 5668 5666 5663 5660 5657 5654 5651 5648 5645 5641 5638 5634 5631 5627 5623 5620 5616 5612 5608 5604 5600 5596 5592 5588 5583 5579 5575 5570 5566 5561 5556 5551 5547 5542 5537 5532 5527 5522 5517 5513 5508 5503 5498 5493 5488 5484 5481 5477 5473 5470 5467 5464 5461 5459 5456 5454 5451 5450 5448 5446 5444 5442
5682 5680 5677 5675 5672 5669 5667 5664 5661 5658 5656 5652 5649 5646 5643 5640 5636 5633 5629 5625 5621 5618 5614 5610 5607 5603 5599 5594 5590 5586 5582 5577 5573 5568 5564 5560 5555 5550 5545 5540 5535 5530 5525 5519 5515 5510 5505 5501 5496 5491 5487 5482 5478 5475 5472 5469 5466 5462 5460 5457 5455 5452 5450 5448 5446 5444 5442 5441 5439
5678 5676 5673 5671 5668 5665 5662 5660 5657 5654 5651 5648 5645 5641 5638 5634 5631 5627 5624 5620 5616 5612 5609 5605 5601 5597 5593 5589 5584 5580 5576 5572 5567 5562 5558 5553 5548 5544 5538 5533 5527 5522 5517 5512 5507 5502 5498 5494 5489 5485 5481 5477 5473 5470 5466 5464 5461 5458 5456 5453 5451 5449 5446 5445 5442 5441 5439 5437 5436
5674 5672 5669 5666 5664 5661 5658 5655 5652 5649 5646 5643 5640 5636 5633 5630 5626 5622 5619 5615 5611 5607 5603 5599 5595 5591 5587 5584 5579 5575 5570 5566 5561 5557 5552 5547 5542 5537 5532 5526 5521 5515 5510 5505 5500 5495 5491 5487 5483 5479 5476 5472 5468 5465 5462 5459 5457 5454 5452 5450 5447 5445 5443 5441 5439 5437 5436 5434 5432
5671 5668 5665 5662 5660 5657 5654 5651 5648 5645 5642 5638 5635 5631 5628 5625 5621 5617 5614 5610 5606 5602 5598 5594 5590 5585 5581 5577 5574 5569 5564 5559 5555 5550 5546 5540 5535 5530 5525 5520 5514 5509 5504 5498 5493 5489 5485 5481 5477 5474 5470 5467 5464 5461 5458 5455 5453 5450 5448 5446 5444 5441 5440 5438 5436 5434 5432 5431 5429
5667 5664 5661 5659 5656 5653 5650 5647 5644 5641 5637 5634 5630 5627 5623 5620 5616 5612 5609 5605 5601 5596 5592 5589 5585 5580 5576 5571 5567 5563 5559 5553 5548 5544 5539 5534 5529 5523 5518 5513 5508 5503 5497 5492 5487 5483 5479 5475 5472 5469 5466 5462 5459 5456 5454 5451 5449 5446 5444 5442 5440 5438 5436 5434 5432 5430 5429 5427 5425
5663 5660 5657 5655 5652 5649 5646 5642 5639 5636 5633 5629 5626 5622 5618 5615 5611 5607 5603 5600 5596 5591 5587 5582 5579 5575 5570 5565 5561 5556 5552 5547 5542 5537 5532 5528 5523 5517 5512 5506 5501 5496 5491 5486 5482 5478 5474 5470 5467 5464 5461 5458 5455 5453 5450 5447 5445 5443 5441 5438 5436 5435 5432 5431 5429 5427 5425 5423 5421
5659 5656 5654 5651 5648 5645 5641 5638 5635 5631 5628 5625 5621 5617 5613 5610 5606 5602 5598 5594 5591 5586 5582 5577 5572 5568 5564 5560 5555 5550 5545 5541 5536 5531 5526 5521 5516 5511 5505 5500 5495 5490 5485 5481 5477 5473 5469 5466 5462 5459 5456 5454 5451 5449 5446 5444 5441 5439 5437 5435 5433 5431 5429 5427 5425 5423 5421 5419 5417
5656 5652 5650 5646 5644 5640 5637 5634 5630 5627 5623 5620 5616 5612 5609 5605 5601 5597 5593 5589 5585 5581 5576 5572 5567 5562 5558 5554 5549 5544 5539 5535 5530 5525 5519 5514 5509 5504 5499 5493 5488 5483 5479 5475 5471 5468 5464 5461 5458 5455 5452 5450 5447 5445 5442 5440 5438 5436 5434 5431 5429 5427 5425 5423 5421 5419 5417 5415 5413
5652 5649 5646 5642 5639 5636 5632 5629 5626 5622 5618 5615 5611 5607 5604 5600 5596 5592 5588 5583 5579 5575 5571 5566 5562 5557 5552 5547 5543 5538 5533 5528 5524 5519 5513 5507 5502 5497 5492 5487 5482 5477 5473 5470 5466 5463 5460 5457 5454 5451 5449 5446 5444 5441 5439 5437 5435 5432 5430 5428 5426 5424 5421 5420 5417 5415 5413 5411 5409
5648 5645 5641 5638 5635 5631 5628 5624 5621 5617 5613 5610 5606 5602 5598 5594 5590 5586 5582 5578 5573 5569 5565 5560 5556 5551 5547 5542 5537 5532 5527 5522 5517 5512 5507 5501 5496 5490 5485 5481 5477 5472 5468 5465 5462 5459 5456 5453 5450 5447 5445 5442 5440 5438 5436 5433 5431 5429 5427 5425 5422 5420 5418 5416 5413 5411 5409 5407 5405
5643 5640 5637 5633 5630 5626 5623 5619 5616 5612 5608 5605 5601 5597 5593 5589 5585 5581 5576 5572 5568 5563 5559 5555 5550 5546 5541 5536 5532 5527 5522 5516 5511 5506 5501 5495 5490 5484 5480 5475 5471 5468 5464 5461 5458 5455 5452 5449 5446 5444 5441 5439 5436 5434 5432 5430 5428 5426 5423 5421 5419 5416 5414 5412 5409 5407 5405 5403 5400
5639 5636 5632 5629 5625 5622 5618 5615 5611 5607 5603 5600 5596 5591 5587 5583 5579 5575 5571 5566 5562 5558 5553 5549 5545 5540 5536 5531 5526 5521 5516 5511 5505 5499 5494 5489 5484 5479 5475 5470 5466 5463 5460 5456 5454 5451 5448 5446 5443 5441 5438 5436 5433 5431 5429 5426 5424 5422 5420 5418 5416 5413 5411 5408 5406 5403 5401 5398 5396
5635 5631 5628 5624 5621 5617 5614 5610 5606 5602 5598 5594 5590 5586 5582 5578 5574 5569 5565 5561 5556 5552 5548 5543 5539 5534 5530 5525 5520 5515 5510 5505 5500 5494 5488 5483 5478 5474 5470 5466 5462 5459 5456 5453 5450 5447 5445 5442 5440 5437 5435 5433 5430 5428 5425 5423 5421 5419 5416 5414 5412 5410 5407 5405 5402 5399 5397 5394 5392
5631 5627 5623 5620 5616 5613 5609 5605 5601 5597 5593 5589 5585 5581 5577 5573 5568 5564 5560 5556 5551 5547 5543 5538 5533 5529 5524 5519 5514 5509 5504 5499 5494 5488 5483 5478 5473 5469 5466 5462 5459 5456 5452 5450 5447 5444 5441 5439 5436 5434 5432 5429 5427 5425 5422 5420 5418 5416 5413 5411 5408 5406 5404 5401 5398 5396 5393 5391 5388
5626 5623 5619 5616 5612 5608 5605 5601 5596 5592 5588 5584 5580 5576 5571 5567 5563 5559 5555 5551 5546 5541 5537 5533 5528 5523 5518 5513 5508 5503 5497 5492 5487 5483 5478 5474 5469 5465 5461 5458 5455 5452 5449 5446 5444 5441 5438 5436 5433 5431 5429 5426 5424 5421 5419 5417 5415 5412 5410 5407 5405 5402 5400 5397 5395 5392 5390 5387 5385
5621 5618 5615 5611 5607 5604 5600 5596 5592 5587 5583 5579 5575 5571 5566 5562 5558 5554 5550 5545 5541 5536 5532 5527 5522 5518 5513 5508 5502 5497 5492 5487 5482 5477 5473 5469 5465 5461 5458 5455 5452 5449 5446 5443 5441 5438 5436 5433 5430 5428 5426 5423 5421 5419 5416 5414 5411 5409 5406 5403 5401 5398 5396 5393 5391 5388 5386 5383 5381
5617 5614 5610 5606 5603 5599 5595 5591 5587 5582 5578 5574 5570 5566 5561 5557 5553 5549 5545 5540 5536 5531 5526 5522 5517 5512 5507 5502 5497 5491 5486 5482 5477 5473 5469 5465 5461 5458 5455 5452 5449 5446 5443 5441 5438 5435 5433 5430 5427 5425 5423 5420 5418 5416 5413 5411 5408 5405 5403 5400 5397 5394 5392 5389 5387 5384 5382 5380 5377
5613 5609 5606 5602 5598 5594 5590 5586 5582 5578 5573 5569 5565 5561 5556 5552 5548 5544 5540 5535 5531 5526 5521 5516 5511 5506 5501 5496 5491 5486 5481 5476 5472 5469 5465 5461 5457 5454 5451 5448 5446 5443 5440 5438 5435 5432 5430 5427 5425 5422 5420 5417 5415 5412 5410 5407 5405 5402 5399 5396 5393 5391 5388 5385 5383 5380 5378 5376 5374
5608 5605 5601 5597 5593 5589 5585 5581 5577 5573 5568 5564 5560 5556 5551 5547 5543 5539 5534 5530 5525 5521 5516 5511 5506 5501 5496 5491 5486 5481 5476 5472 5468 5464 5461 5457 5454 5451 5448 5445 5442 5440 5437 5435 5432 5430 5427 5425 5422 5420 5417 5415 5412 5410 5407 5404 5401 5398 5396 5392 5390 5387 5384 5381 5379 5377 5375 5372 5370
5604 5600 5596 5592 5588 5584 5580 5576 5572 5568 5563 5559 5555 5551 5546 5542 5538 5534 5529 5525 5520 5515 5510 5505 5501 5496 5491 5486 5481 5476 5472 5468 5464 5460 5457 5454 5451 5448 5445 5442 5439 5437 5434 5432 5430 5427 5425 5422 5420 5417 5415 5412 5409 5407 5404 5401 5398 5395 5392 5389 5386 5383 5381 5378 5376 5373 5371 5369 5367
5600 5596 5592 5588 5584 5580 5575 5571 5567 5563 5558 5554 5550 5546 5541 5537 5532 5528 5524 5520 5515 5510 5505 5500 5495 5490 5485 5481 5476 5471 5467 5464 5460 5457 5454 5451 5448 5445 5442 5439 5436 5434 5431 5429 5427 5424 5422 5420 5417 5415 5412 5409 5406 5404 5401 5398 5395 5392 5389 5386 5383 5380 5377 5375 5372 5370 5368 5366 5364
5595 5591 5587 5583 5579 5575 5571 5566 5562 5558 5553 5549 5545 5541 5536 5532 5527 5523 5518 5514 5509 5505 5500 5495 5490 5485 5481 5476 5472 5467 5463 5460 5456 5453 5450 5447 5445 5442 5439 5436 5434 5431 5429 5426 5424 5421 5419 5417 5415 5412 5409 5407 5404 5401 5398 5395 5392 5389 5386 5383 5380 5377 5374 5372 5370 5367 5366 5364 5362
5590 5586 5582 5578 5574 5570 5566 5561 5557 5553 5549 5544 5540 5535 5531 5527 5523 5518 5513 5508 5503 5499 5494 5489 5485 5481 5476 5472 5468 5464 5460 5456 5453 5450 5447 5444 5441 5439 5436 5434 5431 5428 5426 5423 5421 5419 5416 5414 5412 5409 5407 5404 5401 5399 5396 5392 5389 5386 5383 5380 5377 5374 5371 5369 5367 5365 5363 5361 5359
5586 5581 5577 5573 5569 5565 5561 5557 5552 5548 5544 5540 5535 5531 5526 5521 5517 5513 5508 5504 5498 5493 5489 5484 5480 5475 5471 5467 5464 5460 5457 5453 5450 5447 5444 5441 5439 5436 5433 5431 5428 5426 5423 5421 5418 5416 5413 5411 5409 5406 5404 5401 5399 5396 5393 5390 5387 5384 5381 5378 5375 5372 5369 5367 5365 5363 5361 5359 5357
5581 5577 5572 5568 5564 5560 5556 5552 5548 5543 5539 5535 5530 5526 5521 5516 5511 5507 5503 5498 5494 5489 5484 5479 5475 5471 5467 5463 5460 5456 5453 5450 5447 5444 5441 5439 5436 5433 5431 5428 5426 5423 5421 5418 5416 5413 5411 5408 5406 5403 5401 5399 5396 5393 5390 5387 5384 5381 5378 5375 5372 5370 5367 5365 5363 5361 5359 5357 5355
5576 5572 5568 5564 5559 5555 5551 5547 5543 5539 5534 5530 5526 5521 5517 5512 5507 5502 5497 5493 5489 5484 5479 5475 5471 5467 5463 5460 5456 5453 5450 5447 5444 5441 5439 5436 5434 5431 5428 5426 5423 5421 5418 5416 5413 5411 5408 5405 5403 5400 5398 5396 5393 5390 5387 5385 5382 5379 5376 5373 5370 5367 5365 5363 5361 5359 5357 5355 5353
5571 5567 5563 5559 5555 5551 5546 5542 5538 5534 5530 5525 5521 5516 5511 5507 5502 5497 5492 5488 5484 5480 5475 5471 5467 5463 5460 5456 5453 5450 5447 5444 5441 5439 5436 5433 5431 5429 5426 5424 5421 5419 5416 5413 5411 5408 5405 5403 5400 5397 5395 5392 5390 5387 5385 5382 5379 5376 5374 5371 5368 5366 5363 5361 5359 5357 5355 5353 5351
5566 5562 5558 5554 5550 5546 5542 5537 5533 5529 5525 5521 5516 5511 5506 5502 5497 5492 5488 5483 5480 5476 5471 5467 5464 5460 5456 5453 5450 5447 5444 5441 5439 5436 5433 5431 5428 5426 5424 5421 5419 5416 5414 5411 5408 5406 5403 5400 5397 5395 5392 5390 5387 5385 5382 5379 5377 5374 5371 5369 5366 5364 5361 5359 5357 5355 5353 5351 5349
5562 5558 5554 5550 5546 5541 5537 5533 5528 5524 5520 5516 5511 5507 5502 5497 5492 5488 5483 5479 5475 5471 5467 5464 5460 5456 5453 5450 5447 5444 5441 5439 5436 5433 5431 5428 5426 5424 5421 5419 5416 5414 5411 5408 5406 5403 5400 5398 5395 5392 5390 5387 5385 5382 5379 5377 5375 5372 5370 5367 5365 5362 5360 5358 5356 5354 5352 5350 5347
5557 5553 5549 5545 5541 5537 5533 5529 5524 5519 5515 5511 5507 5502 5497 5493 5488 5483 5479 5475 5471 5467 5463 5460 5456 5453 5450 5447 5444 5441 5439 5436 5433 5431 5428 5426 5424 5421 5419 5416 5414 5411 5409 5406 5403 5401 5398 5395 5393 5390 5387 5385 5382 5380 5377 5375 5372 5370 5368 5366 5363 5361 5359 5357 5355 5352 5350 5348 5346